Satellite: INMARSAT 3-F1
Catalog number: 23839
Epoch time:      103071.70847047
Element set:     886 
Inclination:        0.0635 deg
RA of node:       351.3018 deg
Eccentricity:    0.0004184
Arg of perigee:   358.6094 deg
Mean anomaly:     138.9627 deg
Mean motion:    1.00274599 rev/day
Decay rate:    1.7000E-007 rev/day^2
Epoch rev:            2543
Checksum:              405

Satellite: ASTRA 1F
Catalog number: 23842
Epoch time:      103064.00000000
Element set:     562 
Inclination:        0.0122 deg
RA of node:       319.8851 deg
Eccentricity:    0.0002995
Arg of perigee:    65.1991 deg
Mean anomaly:     156.4263 deg
Mean motion:    1.00273184 rev/day
Decay rate:    1.1099E-006 rev/day^2
Epoch rev:            2526
Checksum:              245

Satellite: JAS 2
Catalog number: 24278
Epoch time:      103071.95105674
Element set:     571 
Inclination:       98.5409 deg
RA of node:       220.1365 deg
Eccentricity:    0.0350874
Arg of perigee:   158.3518 deg
Mean anomaly:     203.2873 deg
Mean motion:   13.52875954 rev/day
Decay rate:    1.0100E-006 rev/day^2
Epoch rev:           32433
Checksum:              302

Satellite: UNAMSAT
Catalog number: 24305
Epoch time:      103071.92605710
Element set:     673 
Inclination:       82.9331 deg
RA of node:       246.2485 deg
Eccentricity:    0.0031257
Arg of perigee:   138.5439 deg
Mean anomaly:     221.8069 deg
Mean motion:   13.73454039 rev/day
Decay rate:    2.0499E-006 rev/day^2
Epoch rev:           32655
Checksum:              403

Satellite: INMARSAT 3-F2
Catalog number: 24307
Epoch time:      103072.92966175
Element set:     95 
Inclination:        0.0730 deg
RA of node:       334.2040 deg
Eccentricity:    0.0006697
Arg of perigee:    18.0939 deg
Mean anomaly:     138.0246 deg
Mean motion:    1.00272383 rev/day
Decay rate:   -1.2499E-006 rev/day^2
Epoch rev:            2385
Checksum:              286

Satellite: HOT BIRD 2
Catalog number: 24665
Epoch time:      103072.17365682
Element set:     346 
Inclination:        0.0346 deg
RA of node:       281.0062 deg
Eccentricity:    0.0013225
Arg of perigee:   153.1298 deg
Mean anomaly:     171.6287 deg
Mean motion:    1.00272689 rev/day
Decay rate:    9.9999E-009 rev/day^2
Epoch rev:            2348
Checksum:              308

Satellite: INMARSAT 3-F3
Catalog number: 24674
Epoch time:      103072.45440944
Element set:     5 
Inclination:        0.0022 deg
RA of node:       129.4684 deg
Eccentricity:    0.0002739
Arg of perigee:   185.3701 deg
Mean anomaly:     197.5588 deg
Mean motion:    1.00273113 rev/day
Decay rate:    9.9999E-009 rev/day^2
Epoch rev:            2281
Checksum:              302

Satellite: GOES 10
Catalog number: 24786
Epoch time:      103072.75552316
Element set:     586 
Inclination:        0.1928 deg
RA of node:       102.9757 deg
Eccentricity:    0.0002511
Arg of perigee:   285.3155 deg
Mean anomaly:     279.0709 deg
Mean motion:    1.00268052 rev/day
Decay rate:    8.9000E-007 rev/day^2
Epoch rev:            2156
Checksum:              287

Satellite: INMARSAT 3-F4
Catalog number: 24819
Epoch time:      103072.30443758
Element set:     896 
Inclination:        0.0449 deg
RA of node:       307.5847 deg
Eccentricity:    0.0004769
Arg of perigee:    56.4447 deg
Mean anomaly:     222.0534 deg
Mean motion:    1.00268496 rev/day
Decay rate:   -2.8599E-006 rev/day^2
Epoch rev:            2123
Checksum:              319

Satellite: FENGYUN 2A
Catalog number: 24834
Epoch time:      103072.98463039
Element set:     980 
Inclination:        2.6287 deg
RA of node:        88.2186 deg
Eccentricity:    0.0001104
Arg of perigee:   238.6654 deg
Mean anomaly:     285.0979 deg
Mean motion:    1.00277522 rev/day
Decay rate:   -2.0099E-006 rev/day^2
Epoch rev:            2107
Checksum:              304

Satellite: HOT BIRD 3
Catalog number: 24931
Epoch time:      103072.80168569
Element set:     428 
Inclination:        0.0564 deg
RA of node:        98.4401 deg
Eccentricity:    0.0022884
Arg of perigee:   131.9923 deg
Mean anomaly:     242.5146 deg
Mean motion:    1.00274246 rev/day
Decay rate:    9.9999E-009 rev/day^2
Epoch rev:            2031
Checksum:              302

Satellite: METEOSAT 7
Catalog number: 24932
Epoch time:      103072.87743635
Element set:     261 
Inclination:        0.2667 deg
RA of node:        74.4310 deg
Eccentricity:    0.0001220
Arg of perigee:   235.9381 deg
Mean anomaly:     176.7426 deg
Mean motion:    1.00264224 rev/day
Decay rate:   -5.9999E-008 rev/day^2
Epoch rev:            2025
Checksum:              289

Satellite: ASTRA 1G
Catalog number: 25071
Epoch time:      103064.00000000
Element set:     394 
Inclination:        0.0122 deg
RA of node:       319.8851 deg
Eccentricity:    0.0002995
Arg of perigee:    65.1991 deg
Mean anomaly:     156.4370 deg
Mean motion:    1.00273184 rev/day
Decay rate:    1.1099E-006 rev/day^2
Epoch rev:            1928
Checksum:              248

Satellite: INMARSAT 3-F5
Catalog number: 25153
Epoch time:      103072.67949981
Element set:     856 
Inclination:        0.4626 deg
RA of node:       353.0312 deg
Eccentricity:    0.0003083
Arg of perigee:    10.1485 deg
Mean anomaly:      77.3005 deg
Mean motion:    1.00274491 rev/day
Decay rate:    1.4099E-006 rev/day^2
Epoch rev:            1873
Checksum:              284

Satellite: HOT BIRD 4
Catalog number: 25237
Epoch time:      103055.98151369
Element set:     330 
Inclination:        0.0547 deg
RA of node:       293.1775 deg
Eccentricity:    0.0007524
Arg of perigee:   338.0934 deg
Mean anomaly:     249.5459 deg
Mean motion:    1.00273950 rev/day
Decay rate:    7.4000E-007 rev/day^2
Epoch rev:            1860
Checksum:              290

Satellite: NOAA 15
Catalog number: 25338
Epoch time:      103072.64101168
Element set:     38 
Inclination:       98.5473 deg
RA of node:        94.1648 deg
Eccentricity:    0.0009667
Arg of perigee:   248.0421 deg
Mean anomaly:     111.9731 deg
Mean motion:   14.24256259 rev/day
Decay rate:    2.5100E-006 rev/day^2
Epoch rev:           25108
Checksum:              296

Satellite: RESURS O1-N4
Catalog number: 25394
Epoch time:      103072.89540655
Element set:     469 
Inclination:       98.6287 deg
RA of node:       150.3885 deg
Eccentricity:    0.0002288
Arg of perigee:    55.7690 deg
Mean anomaly:     304.3705 deg
Mean motion:   14.23887332 rev/day
Decay rate:    2.2900E-006 rev/day^2
Epoch rev:           24285
Checksum:              337

Satellite: TMSAT
Catalog number: 25396
Epoch time:      103073.22301063
Element set:     831 
Inclination:       98.6211 deg
RA of node:       149.8571 deg
Eccentricity:    0.0003447
Arg of perigee:    74.4879 deg
Mean anomaly:     285.6684 deg
Mean motion:   14.23518917 rev/day
Decay rate:   -4.3000E-007 rev/day^2
Epoch rev:           24289
Checksum:              315

Satellite: TECHSAT 1B
Catalog number: 25397
Epoch time:      103071.91803943
Element set:     159 
Inclination:       98.6178 deg
RA of node:       147.4333 deg
Eccentricity:    0.0002169
Arg of perigee:    84.1327 deg
Mean anomaly:     276.0098 deg
Mean motion:   14.22965432 rev/day
Decay rate:    1.0400E-006 rev/day^2
Epoch rev:           24267
Checksum:              308

Satellite: ASTRA 2A
Catalog number: 25462
Epoch time:      103064.00000000
Element set:     536 
Inclination:        0.0385 deg
RA of node:       308.7109 deg
Eccentricity:    0.0004824
Arg of perigee:   280.8620 deg
Mean anomaly:     320.9573 deg
Mean motion:    1.00272094 rev/day
Decay rate:    1.4099E-006 rev/day^2
Epoch rev:            1658
Checksum:              248

Satellite: EUTELSAT W2
Catalog number: 25491
Epoch time:      103070.93084832
Element set:     587 
Inclination:        0.0256 deg
RA of node:       287.8570 deg
Eccentricity:    0.0003791
Arg of perigee:    57.7426 deg
Mean anomaly:     174.6652 deg
Mean motion:    1.00273786 rev/day
Decay rate:    1.0600E-006 rev/day^2
Epoch rev:            1626
Checksum:              294

Satellite: HOT BIRD 5
Catalog number: 25495
Epoch time:      103070.00000000
Element set:     504 
Inclination:        0.0100 deg
RA of node:         0.0000 deg
Eccentricity:    0.0000100
Arg of perigee:     0.0000 deg
Mean anomaly:     193.7470 deg
Mean motion:    1.00273841 rev/day
Decay rate:    1.4600E-006 rev/day^2
Epoch rev:            1622
Checksum:              146

Satellite: SEDSAT 1
Catalog number: 25509
Epoch time:      103072.94090776
Element set:     800 
Inclination:       31.4302 deg
RA of node:        21.1791 deg
Eccentricity:    0.0357364
Arg of perigee:   146.9802 deg
Mean anomaly:     215.3679 deg
Mean motion:   14.27462080 rev/day
Decay rate:    6.9399E-006 rev/day^2
Epoch rev:           22865
Checksum:              315

Satellite: PAN SAT
Catalog number: 25520
Epoch time:      103072.17041140
Element set:     647 
Inclination:       28.4587 deg
RA of node:        73.2968 deg
Eccentricity:    0.0006580
Arg of perigee:   233.7833 deg
Mean anomaly:     126.2151 deg
Mean motion:   15.14008660 rev/day
Decay rate:    3.5069E-005 rev/day^2
Epoch rev:           24101
Checksum:              388

Satellite: ISS (ZARYA)
Catalog number: 25544
Epoch time:      103073.51473380
Element set:     781 
Inclination:       51.6326 deg
RA of node:       135.7287 deg
Eccentricity:    0.0008104
Arg of perigee:   327.0360 deg
Mean anomaly:     234.7189 deg
Mean motion:   15.58695319 rev/day
Decay rate:    4.6950E-005 rev/day^2
Epoch rev:           24623
Checksum:              418

